Weather in Mortka

Russia / Khanty-Mansi Autonomous Okrug — Yugra     59°19′52″N   66°01′21″E
temp.,
°C
wind,
m/s
gust,
m/s
humid.,
%
clouds,
%
prec.,
mm/h
press.,
hPa
HPBL,
m
9 march, tue
tue923:00−13sse2697100 0.1 1004215
02:00−13se3696100 0.2 1002243
05:00−12ese3796100 0.8 1001304
08:00−10se1697100 0.7 1001285
11:00−6sw4892100 0.9 1002720
14:00−6wsw5790100 0.4 1003743
17:00−9nw3592100 0.7 1005518
20:00−17nw369776 0.1 1007125
10 march, wed
wed1023:00−20nw229951 0.1 101020
02:00−22nw121000 0.0 101220
05:00−24nne121000 0.0 101220
08:00−24ene129943 0.0 101222
11:00−17ene239259 0.0 1012293
14:00−16ne3594100 0.0 1011371
17:00−17ne4794100 0.1 1010400
20:00−18nne3896100 0.1 1009343
11 march, thu
thu1123:00−21nne4897100 0.2 1009315
02:00−23nne4896100 0.1 1009279
05:00−26nne4896100 0.1 1009257
08:00−27nne4796100 0.0 1009233
11:00−25n4695100 0.0 1009290
14:00−22n469373 0.0 1010428
17:00−23n379284 0.0 1010424
20:00−26nnw3796100 0.0 1012222
12 march, fri
fri1223:00−30nnw239775 0.0 101338
02:00−31nw22990 0.0 101319
05:00−32w12980 0.0 101319
08:00−30sw22940 0.0 101342
11:00−21ssw369127 0.0 1013263
14:00−16sw489193 0.0 1012502
17:00−13sw499197 0.1 1011611
20:00−12sw4119491 0.1 1012409
13 march, sat
sat1323:00−11wsw4119395 0.1 1012358
02:00−14wsw499434 0.0 1013243
05:00−15wsw499430 0.0 1014229
08:00−15wsw499413 0.0 1015255
11:00−9wsw489134 0.0 1015370
14:00−5wsw588726 0.0 1016763
17:00−4wsw498763 0.1 1016765
20:00−7wsw4119187 0.0 1016329